{"data":{"norad_id":69923,"intl_designator":"2026-156BG","name":"RAFS","alt_names":[],"object_type":"PAYLOAD","status":"ACTIVE","operator":null,"country":"TURK","launch_date":"2026-07-07","launch_site_code":"AFWTR","launch_vehicle":null,"mission":null,"orbit_class":"UNKNOWN","rcs_meters":null,"size_class":null,"mass_kg":null,"dimensions":null,"purposes":[],"wikipedia_slug":null,"has_3d_model":false,"image_url":null,"decayed_at":null,"tle_current":{"epoch":"2026-09-19T23:36:43.383744Z","epoch_age_seconds":62416,"freshness":"FRESH","line1":"1 69923U 26156BG  26262.98383546  .00000835  00000+0  87659-4 0  9997","line2":"2 69923  97.7429 162.1963 0006044 266.6103  93.4425 14.92121667 11137","mean_motion":14.92121667,"eccentricity":0.0006044,"inclination_deg":97.7429,"raan_deg":162.1963,"arg_perigee_deg":266.6103,"mean_anomaly_deg":93.4425,"bstar":8.7659e-5,"rev_number":1113,"period_min":96.506875534835,"perigee_km":587.10884492184,"apogee_km":595.53352597641,"semimajor_km":6969.4581854491,"source":"CELESTRAK","updated_at":"2026-09-20T09:00:25.204647Z"}}}